TimeEST,TemperatureF,Dew PointF,Humidity,Sea Level PressureIn,VisibilityMPH,Wind Direction,Wind SpeedMPH,Gust SpeedMPH,PrecipitationIn,Events,Conditions,WindDirDegrees,DateUTC
12:53 AM,33.1,28.9,85,30.30,7.0,Calm,Calm,-,N/A,,Clear,0,2012-12-01 05:53:00
1:53 AM,32.0,28.0,85,30.31,9.0,Calm,Calm,-,N/A,,Clear,0,2012-12-01 06:53:00
2:53 AM,30.9,28.0,89,30.31,8.0,Calm,Calm,-,N/A,,Clear,0,2012-12-01 07:53:00
3:53 AM,32.0,28.0,85,30.31,8.0,Calm,Calm,-,N/A,,Clear,0,2012-12-01 08:53:00
4:53 AM,28.9,26.1,89,30.32,6.0,Calm,Calm,-,N/A,,Clear,0,2012-12-01 09:53:00
5:53 AM,30.0,27.0,88,30.35,7.0,Calm,Calm,-,N/A,,Clear,0,2012-12-01 10:53:00
6:53 AM,28.9,26.1,89,30.37,6.0,Calm,Calm,-,N/A,,Clear,0,2012-12-01 11:53:00
7:53 AM,30.0,27.0,88,30.39,5.0,Calm,Calm,-,N/A,,Clear,0,2012-12-01 12:53:00
8:53 AM,37.0,32.0,82,30.40,8.0,Calm,Calm,-,N/A,,Clear,0,2012-12-01 13:53:00
9:53 AM,45.0,34.0,65,30.40,10.0,Calm,Calm,-,N/A,,Clear,0,2012-12-01 14:53:00
10:53 AM,51.1,34.0,52,30.41,10.0,Calm,Calm,-,N/A,,Clear,0,2012-12-01 15:53:00
11:53 AM,55.9,36.0,47,30.38,10.0,Calm,Calm,-,N/A,,Clear,0,2012-12-01 16:53:00
12:53 PM,61.0,37.0,41,30.35,10.0,Calm,Calm,-,N/A,,Clear,0,2012-12-01 17:53:00
1:53 PM,62.1,37.9,41,30.33,10.0,Variable,3.5,-,N/A,,Clear,0,2012-12-01 18:53:00
2:53 PM,64.0,37.9,38,30.32,10.0,Calm,Calm,-,N/A,,Clear,0,2012-12-01 19:53:00
3:53 PM,63.0,37.9,40,30.32,10.0,Calm,Calm,-,N/A,,Clear,0,2012-12-01 20:53:00
4:53 PM,59.0,37.9,46,30.33,10.0,ESE,3.5,-,N/A,,Clear,110,2012-12-01 21:53:00
5:53 PM,54.0,37.0,53,30.33,10.0,East,3.5,-,N/A,,Clear,100,2012-12-01 22:53:00
6:53 PM,48.0,37.0,66,30.35,10.0,East,3.5,-,N/A,,Clear,90,2012-12-01 23:53:00
7:53 PM,46.0,37.0,71,30.36,10.0,East,4.6,-,N/A,,Clear,90,2012-12-02 00:53:00
8:53 PM,42.1,35.1,76,30.36,10.0,East,3.5,-,N/A,,Clear,90,2012-12-02 01:53:00
9:53 PM,44.1,35.1,71,30.36,10.0,Calm,Calm,-,N/A,,Clear,0,2012-12-02 02:53:00
10:53 PM,41.0,35.1,79,30.36,10.0,Calm,Calm,-,N/A,,Clear,0,2012-12-02 03:53:00
11:53 PM,39.9,34.0,79,30.36,10.0,Calm,Calm,-,N/A,,Clear,0,2012-12-02 04:53:00